Location: Pine Mountain Observatory
(43.7910°N, 120.9377°W)
Time: 04:49:11
(UTC-07:00)

Vanguard 1 Rocket - Pass Details

Date: 27 May 2019
Orbit: 652 x 4224 km, 34.3° (Epoch: 17 June)

Event Time Altitude Azimuth Distance (km) Brightness Sun altitude
Exits shadow 03:46:10 21° 230° (SW) 1,871 8.4 -14.7°
Maximum altitude 03:49:27 38° 175° (S) 1,564 8.2 -14.3°
Drops below altitude 10° 03:57:40 10° 111° (ESE) 3,920 10.9 -13.4°
Sets 04:02:16 0° 105° (ESE) 5,510 11.8 -12.8°
